Regional Weather Roundup
Issued by NWS Northern Indiana

Home | Current Version | Previous Version | Graphics & Text | Print | Product List | Glossary On
Versions: 1 2 3 4 5 6 7 8 9 10 11 12 13 14 15 16 17 18 19 20 21 22 23 24 25 26 27 28 29 30 31 32 33 34 35 36 37 38 39 40 41 42 43 44 45 46 47 48 49 50
000
ASUS43 KIWX 041510
RWRIWX

KIWX WEATHER ROUNDUP
NATIONAL WEATHER SERVICE NORTHERN INDIANA
1100 AM EDT SAT JUL 04 2015

NOTE: "FAIR" INDICATES FEW OR NO CLOUDS BELOW 12,000 FEET WITH NO
SIGNIFICANT WEATHER AND/OR OBSTRUCTIONS TO VISIBILITY.

* THESE STATIONS ARE NOT UNDER NWS QUALITY CONTROL. THEY ALSO MAY NOT
  REPORT WEATHER SUCH AS PRECIPITATION OR FOG.

INZ001>027-041600-
NORTHERN INDIANA

CITY           SKY/WX    TMP DP  RH WIND       PRES   REMARKS
GARY*          SUNNY    N/A N/A N/A CALM      30.01R
VALPARAISO     SUNNY     71  58  63 CALM      30.02R
MICHIGAN CITY* SUNNY     72  55  56 SW3       30.02R
LAPORTE*       SUNNY     72  59  63 CALM      30.02S
KNOX*          SUNNY     70  55  60 CALM      30.01S
SOUTH BEND     SUNNY     72  56  57 CALM      30.02R
GOSHEN         SUNNY     70  56  61 N3        30.01S
MONTICELLO*    SUNNY     71  60  69 E3        30.02R
LOGANSPORT*    SUNNY     70  55  60 CALM      30.03S
ROCHESTER*     SUNNY     72  59  64 CALM      30.02S
WARSAW*          N/A     70  57  64 CALM      30.02S
ANGOLA*          N/A     72  64  78 CALM      30.00F
FORT WAYNE     MOSUNNY   73  60  63 VRB3      30.02S
HUNTINGTON*    SUNNY     72  58  62 N5        30.01S
PERU/GRISSOM   SUNNY     71  59  66 NW5       30.01S
MARION*        SUNNY     70  59  67 CALM      30.02S

$$
INZ028>050-041600-
CENTRAL INDIANA

CITY           SKY/WX    TMP DP  RH WIND       PRES   REMARKS
LAFAYETTE      SUNNY     70  60  70 CALM      30.02R
KOKOMO*        SUNNY     73  61  64 N5        30.01S
MUNCIE*        SUNNY     73  58  59 CALM      30.02S
INDIANAPOLIS   MOSUNNY   75  58  55 N3        30.01R

$$
MIZ043>046-050>051-056>058-064>065-071>073-077>080-041600-
SOUTHWEST LOWER MICHIGAN

CITY           SKY/WX    TMP DP  RH WIND       PRES   REMARKS
BATTLE CREEK   SUNNY     72  58  61 N6        30.02R
BENTON HARBOR  SUNNY     72  57  59 CALM      30.00S
COLDWATER*     SUNNY     70  57  63 NW5       30.01S
HILLSDALE*     SUNNY     71  58  63 W3        30.01S
HOLLAND        SUNNY     72  57  59 CALM      30.00S
GRAND RAPIDS   PTSUNNY   71  52  50 SW5       30.00S
KALAMAZOO      SUNNY     72  50  45 N6        30.01R
STURGIS*       SUNNY     70  57  64 W3        30.01R
THREE RIVERS*  FAIR      72  51  48 NW3       30.02S

$$
OHZ001>008-015>018-024>025-041600-
NORTHWEST OHIO

CITY           SKY/WX    TMP DP  RH WIND       PRES   REMARKS
DEFIANCE       SUNNY     74  57  55 CALM      30.00S
FINDLAY        SUNNY     72  55  55 N5        30.00S
TOLEDO EXPRESS SUNNY     72  53  51 CALM      29.99S
TOLEDO METCALF SUNNY     73  55  53 VRB3      30.00S
LIMA           SUNNY     70  56  61 NE5       30.01S

$$
AND FOR LAKE MICHIGAN COASTAL AND OPEN LAKE BUOY OBSERVATIONS

STATION/POSITION TEMP    WIND        PRES    VSBY  WAVE
                 AIR SEA DIR/SP/G                  HT/PER
                 (F)     (DEG/KT/KT) (MB)    (MI)  (FT/S)
CALUMET HARBOR    73      CALM  /  2   N/A
MICHIGAN CITY     65     210/  3/  4   N/A
BURNS HARBOR      68     240/  2/  4 1016.6R
SAINT JOSEPH      63     180/  6/  6   N/A
4 MI NW BRIDGMAN  63 63                N/A           0
MICHIGAN CITY     65 65  230/  2/  2   N/A           0
SAINT JOSEPH CG   63        CALM     1015.5      6   1

$$
&&



USA.gov is the U.S. government's official web portal to all federal, state and local government web resources and services.